IRIDIUM 65

Last updated on Wed Nov 29 2017 00:19:03 GMT+0000 (Coordinated Universal Time)

1 25288U 98021D 17332.46769738 -.00000021 00000-0 -14583-4 0 9991 2 25288 86.3954 155.2283 0001929 90.1124 270.0293 14.34219571 28567
UTC large
Height (km)
Speed (km/s)
/
Latitude / Longitude
Inclination (degrees)
Orbital Period (minutes)
Azimuth
Elevation
Range (km)
Doppler Factor

Next 0 passes for location: London (51.5072 / 0.1276)

Sorry there are no passes over London.